Volver al catálogo

STARLINK-30797

ActivoComunicacionesVLEO
NORAD 58154·PAYLOAD·🇺🇸 United States

Lanzado Oct 29, 2023 desde Vandenberg Space Force Base

Loading…

Próximos Pases (próximas 24 horas)

TLE

ActualizadoSource: CelesTrak SupGP

Época: Sep 15, 2026, 02:58 UTC

1 58154C 23166E   26258.12409722 -.00025221  00000+0 -74544-3 0  2589
2 58154  53.1597  58.7372 0001194  87.7065 254.2051 15.34391318    13

Sigue STARLINK-30797 en tiempo real con AllMySat

Download on the App Store